This demonstration page uses our WeatherBlox Daily Observations layout. Learn more.

Left ArrowRight Arrow

34.16533, -84.80231

Hourly Observations for May 6, 2017

Temp ( °F °C ) Dew Point ( °F °C ) Humidity (%) Winds ( mph kmh ) Pressure ( in mb ) Visibility ( mi km ) Precip ( " mm )
12:53 am 00:53 Cloudy 49 9.4 45 7.2 86 86 Calm 29.73 1007 10 16 0.00 0.00
1:22 am 01:22 Cloudy with Mist and Fog 49 9.4 45 7.2 86 86 VRB 3 6 29.77 1008 3 4 0.00 0.00
1:31 am 01:31 Cloudy 49 9.4 45 7.2 86 86 Calm 29.77 1008 10 16 0.00 0.00
1:53 am 01:53 Cloudy 49 9.4 45 7.2 86 86 VRB 3 6 29.73 1007 10 16 0.00 0.00
2:53 am 02:53 Mostly Cloudy 48 8.9 45 7.2 89 89 VRB 3 6 29.73 1007 10 16 0.00 0.00
3:53 am 03:53 Cloudy 48 8.9 46 7.8 93 93 Calm 29.75 1007 10 16 0.00 0.00
4:53 am 04:53 Clear 46 7.8 45 7.2 96 96 Calm 29.75 1007 10 16 0.00 0.00
5:53 am 05:53 Clear 44 6.7 44 6.7 100 100 Calm 29.77 1008 10 16 0.00 0.00
6:53 am 06:53 Sunny 44 6.7 44 6.7 100 100 Calm 29.79 1009 10 16 0.00 0.00
7:53 am 07:53 Sunny 47 8.3 46 7.8 97 97 Calm 29.82 1010 10 16 0.00 0.00
8:53 am 08:53 Sunny 51 10.6 46 7.8 83 83 VRB 3 6 29.83 1010 10 16 0.00 0.00
9:53 am 09:53 Sunny 55 12.8 46 7.8 72 72 VRB 5 7 29.85 1011 10 16 0.00 0.00
10:53 am 10:53 Sunny 60 15.6 42 5.6 52 52 VRB 5 7 29.85 1011 10 16 0.00 0.00
11:53 am 11:53 Sunny 63 17.2 42 5.6 47 47 VRB 7 11 29.83 1010 10 16 0.00 0.00
12:53 pm 12:53 Sunny 64 17.8 42 5.6 45 45 VRB 6 9 29.82 1010 10 16 0.00 0.00
1:53 pm 13:53 Sunny 66 18.9 47 8.3 50 50 VRB 6 9 29.78 1009 10 16 0.00 0.00
2:53 pm 14:53 Mostly Sunny 69 20.6 49 9.4 49 49 undefined N/A 29.75 1008 10 16 0.00 0.00
3:53 pm 15:53 Sunny 71 21.7 49 9.4 46 46 VRB 7 11 29.72 1007 10 16 0.00 0.00
4:53 pm 16:53 Mostly Sunny 71 21.7 50 10 47 47 VRB 6 9 29.70 1006 10 16 0.00 0.00
5:53 pm 17:53 Partly Cloudy 71 21.7 48 8.9 44 44 VRB 7 11 29.68 1005 10 16 0.00 0.00
6:53 pm 18:53 Cloudy 70 21.1 47 8.3 44 44 VRB 7 11 29.69 1005 10 16 0.00 0.00
7:53 pm 19:53 Cloudy with Rain 57 13.9 57 13.9 100 100 N 9 15 29.76 1008 3 5 0.06 1.52
8:39 pm 20:39 Cloudy 57 13.9 57 13.9 100 100 Calm 29.83 1010 10 16 0.01 0.25
8:53 pm 20:53 Cloudy 57 13.9 57 13.9 100 100 Calm 29.80 1009 10 16 0.01 0.25
9:53 pm 21:53 Cloudy 56 13.3 54 12.2 93 93 N 7 11 29.84 1010 10 16 0.00 0.00
10:53 pm 22:53 Cloudy 55 12.8 54 12.2 96 96 Calm 29.87 1011 10 16 0.00 0.03
11:53 pm 23:53 Cloudy 54 12.2 53 11.7 97 97 N 3 6 29.89 1012 10 16 0.01 0.25

Powered by AerisWeather